Regional Weather Roundup
Issued by NWS

Home | Current Version | Previous Version | Graphics & Text | Print | Product List | Glossary On
Versions: 1 2 3 4 5 6 7 8 9 10 11 12 13 14 15 16 17 18 19 20 21 22 23 24 25 26 27 28 29 30 31 32 33 34 35 36 37 38 39 40 41 42 43 44 45 46 47 48 49 50
021
ASUS43 KBIS 270410
RWRND

NORTH DAKOTA REGIONAL WEATHER ROUNDUP
NATIONAL WEATHER SERVICE BISMARCK ND
1000 PM CST SUN FEB 26 2017

NOTE: "FAIR" INDICATES FEW OR NO CLOUDS BELOW 12,000 FEET WITH NO
SIGNIFICANT WEATHER AND/OR OBSTRUCTIONS TO VISIBILITY.


NDZ001>003-009>011-017-270500-
NORTHWEST NORTH DAKOTA

CITY           SKY/WX    TMP DP  RH WIND       PRES   REMARKS
WILLISTON      CLOUDY    20  14  77 W6        29.81S WCI  12
MINOT          MOCLDY    16  11  80 SW8       29.81R WCI   5
MINOT AFB      CLOUDY    15  11  83 W10       29.81R WCI   2
$$

NDZ018>021-031>035-040>046-270500-
SOUTHWEST NORTH DAKOTA

CITY           SKY/WX    TMP DP  RH WIND       PRES   REMARKS
BISMARCK       FAIR      14  11  87 CALM      29.86R
DICKINSON      FAIR      12   8  84 CALM      29.77S
GARRISON         N/A      9   6  88 SW3       29.82S
HETTINGER ARPT FAIR      17  14  88 CALM      29.80S
$$

NDZ004>008-012>016-024-026-027-054-270500-
NORTHEAST NORTH DAKOTA

CITY           SKY/WX    TMP DP  RH WIND       PRES   REMARKS
GRAND FORKS    FAIR       7  -1  70 SW6       29.90R WCI  -3
GRND FRKS AFB  FAIR       6   2  81 SW6       29.90R WCI  -4
DEVILS LAKE    FAIR       5   1  83 SW7       29.85S WCI  -7
$$

NDZ022-023-025-028>030-036>039-047>053-270500-
SOUTHEAST NORTH DAKOTA

CITY           SKY/WX    TMP DP  RH WIND       PRES   REMARKS
FARGO          CLOUDY    20  12  71 S6        29.91R WCI  12
JAMESTOWN      CLOUDY    21  16  81 CALM      29.85R
$$





USA.gov is the U.S. government's official web portal to all federal, state and local government web resources and services.